Location: Bucquoy
(50.1391°N, 2.7097°E)
Time: 07:59:08
(UTC+00:00)

Cosmos 1908 - Pass Details

Date: 06 May 2021
Orbit: 511 x 528 km, 82.5° (Epoch: 21 June)

Event Time Altitude Azimuth Distance (km) Brightness Sun altitude
Rises 03:09:48 0° 344° (NNW) 2,660 7.2 -9.6°
Reaches altitude 10° 03:12:00 10° 339° (NNW) 1,769 6.2 -9.4°
Maximum altitude 03:15:43 46° 266° (W) 712 3.5 -8.9°
Drops below altitude 10° 03:19:26 10° 192° (SSW) 1,763 5.4 -8.5°
Enters shadow 03:20:55 - 188° (S) 2,362 6.1 -8.3°
